This demonstration page uses our WeatherBlox Daily Observations layout. Learn more.

Left ArrowRight Arrow

Hourly Observations for January 21, 2019

Temp ( °F °C ) Dew Point ( °F °C ) Humidity (%) Winds ( mph kmh ) Pressure ( in mb ) Visibility ( mi km ) Precip ( " mm )
12:51 am 00:51 Clear 40 4.4 26 -3.3 58 58 N N/A 29.94 1014 10 16 N/A
1:51 am 01:51 Clear 42 5.6 26 -3.3 53 53 ESE 6 9 29.91 1013 10 16 N/A
2:51 am 02:51 Clear 42 5.6 25 -3.9 51 51 SSE 7 11 29.88 1012 10 16 N/A
3:51 am 03:51 Clear 37 2.8 27 -2.8 67 67 NW 9 15 29.90 1012 10 16 N/A
4:51 am 04:51 Clear 36 2.2 26 -3.3 67 67 NE 5 7 29.89 1012 10 16 N/A
5:51 am 05:51 Clear 35 1.7 26 -3.3 70 70 ESE 3 6 29.90 1012 10 16 N/A
6:51 am 06:51 Clear 36 2.2 26 -3.3 67 67 NE 3 6 29.92 1013 10 16 N/A
7:51 am 07:51 Sunny 35 1.7 26 -3.3 70 70 NNE 6 9 29.92 1013 10 16 N/A
8:51 am 08:51 Sunny 44 6.7 28 -2.2 53 53 N N/A 29.91 1013 10 16 N/A
9:51 am 09:51 Sunny 51 10.6 26 -3.3 38 38 N N/A 29.90 1013 10 16 N/A
10:51 am 10:51 Sunny 58 14.4 24 -4.4 27 27 SE 8 13 29.86 1011 10 16 N/A
11:51 am 11:51 Sunny 62 16.7 23 -5 22 22 SSW 3 6 29.82 1010 10 16 N/A
12:51 pm 12:51 Sunny 66 18.9 23 -5 19 19 SE 5 7 29.74 1007 10 16 N/A
1:51 pm 13:51 Sunny 70 21.1 20 -6.7 15 15 N N/A 29.67 1005 10 16 N/A
2:51 pm 14:51 Sunny 69 20.6 23 -5 17 17 WNW 17 28 29.65 1004 10 16 N/A
3:51 pm 15:51 Sunny 67 19.4 25 -3.9 20 20 WNW 25 41 29.66 1004 10 16 N/A
4:51 pm 16:51 Sunny 61 16.1 32 undefined 34 34 NW 22 35 29.67 1005 10 16 N/A
5:51 pm 17:51 Clear 55 12.8 35 1.7 47 47 NW 22 35 29.72 1006 10 16 N/A
6:51 pm 18:51 Mostly Clear 53 11.7 34 1.1 48 48 NW 24 39 29.73 1007 10 16 N/A
7:51 pm 19:51 Mostly Cloudy 52 11.1 33 0.6 49 49 NW 18 30 29.75 1007 10 16 N/A
8:51 pm 20:51 Cloudy 51 10.6 22 -5.6 32 32 NW 23 37 29.76 1008 10 16 N/A
9:51 pm 21:51 Cloudy 50 10 21 -6.1 32 32 WNW 16 26 29.76 1008 10 16 N/A
10:51 pm 22:51 Mostly Cloudy 47 8.3 13 -10.6 25 25 NW 17 28 29.79 1009 10 16 N/A
11:51 pm 23:51 Clear 43 6.1 15 -9.4 32 32 NNW 9 15 29.81 1009 10 16 N/A

Powered by AerisWeather